IW1PPB-3 Loano IT current weather conditions

sailwx.info

Wind from 251 at 5 knots gusting 8

Air temperature 11.7° C
Dewpoint 4.6° C

Last reported at 2019-Nov-11 22:03 UTC.
Time now 2019-Nov-11 22:49 UTC

Location: N 44°07' E 008°15'.
View on Google Maps.

See reports from other nearby stations

  
Tides and Currents Weather Stations Pressure Air Temp Water Temp Dewpoint Dewpoint Depression Visibility Wind Speed Wind Dir Waves Ship Positions
date/time (UTC)wind fromknots sea level pressurealtimeterstation pressurevisibilityair tempwater tempwave heightnotes
2019-Nov-11 22:03 251 5 gusting 8 11.7
2019-Nov-11 21:53 273 2 gusting 13 11.7
2019-Nov-11 21:43 313 7 gusting 10 11.7
2019-Nov-11 21:33 260 5 gusting 8 11.7
2019-Nov-11 21:23 288 3 gusting 12 11.7
2019-Nov-11 21:13 309 6 gusting 11 11.7
2019-Nov-11 21:03 257 5 gusting 13 11.7
2019-Nov-11 20:53 272 7 gusting 12 11.7
2019-Nov-11 20:43 271 6 gusting 11 11.7
2019-Nov-11 20:33 291 7 gusting 14 11.7
2019-Nov-11 20:23 252 10 gusting 16 11.7
2019-Nov-11 20:13 313 9 gusting 12 11.7
2019-Nov-11 20:03 342 8 gusting 10 11.7
2019-Nov-11 19:53 246 11 gusting 11 12.2
2019-Nov-11 19:43 286 7 gusting 13 11.7
2019-Nov-11 19:33 225 13 gusting 13 11.7
2019-Nov-11 19:23 271 9 gusting 12 11.7
2019-Nov-11 19:13 278 8 gusting 11 11.7
2019-Nov-11 19:03 283 9 gusting 14 11.7
2019-Nov-11 18:53 241 4 gusting 14 11.7
2019-Nov-11 18:43 268 13 gusting 13 11.7
2019-Nov-11 18:33 323 8 gusting 10 11.1
2019-Nov-11 18:23 277 14 gusting 15 11.1
2019-Nov-11 18:13 253 13 gusting 14 11.1
2019-Nov-11 18:03 270 7 gusting 13 10.6
2019-Nov-11 17:53 283 13 gusting 14 10.6
2019-Nov-11 17:43 292 13 gusting 13 10.6
2019-Nov-11 17:33 257 10 gusting 14 10.0
2019-Nov-11 17:23 264 5 gusting 14 10.0
2019-Nov-11 17:13 270 2 gusting 5 10.0
2019-Nov-11 17:03 263 7 gusting 11 10.0
2019-Nov-11 16:53 259 6 gusting 9 10.0
2019-Nov-11 16:43 317 6 gusting 13 10.0
2019-Nov-11 16:33 268 12 gusting 12 10.6
2019-Nov-11 16:23 277 8 gusting 12 10.6
2019-Nov-11 16:13 323 8 gusting 13 10.6
2019-Nov-11 16:03 334 7 gusting 11 10.6
2019-Nov-11 15:53 282 12 gusting 14 10.6
2019-Nov-11 15:43 279 8 gusting 14 11.1
2019-Nov-11 15:33 292 7 gusting 12 11.7
2019-Nov-11 15:23 257 6 gusting 14 11.1
2019-Nov-11 15:13 273 9 gusting 11 11.1
2019-Nov-11 15:03 329 9 gusting 19 11.7
2019-Nov-11 14:53 310 13 gusting 18 11.7
2019-Nov-11 14:43 336 12 gusting 14 11.7
2019-Nov-11 14:33 277 6 gusting 8 12.2
2019-Nov-11 14:23 355 8 gusting 10 12.8
2019-Nov-11 14:13 355 14 gusting 14 13.3
2019-Nov-11 14:03 334 6 gusting 13 13.3
2019-Nov-11 13:53 273 2 gusting 13 13.3
2019-Nov-11 13:43 313 10 gusting 14 13.3
2019-Nov-11 13:33 317 14 gusting 21 13.9
2019-Nov-11 13:23 307 11 gusting 18 13.3
2019-Nov-11 13:13 351 11 gusting 14 13.3
2019-Nov-11 13:03 318 11 gusting 13 13.3
2019-Nov-11 12:53 244 2 gusting 7 12.8
2019-Nov-11 12:43 271 1 gusting 4 11.7
2019-Nov-11 12:33 298 7 gusting 12 12.2
2019-Nov-11 12:23 259 5 gusting 10 12.2
2019-Nov-11 12:13 270 2 gusting 8 13.3
2019-Nov-11 12:03 302 6 gusting 8 13.3
2019-Nov-11 11:53 319 7 gusting 8 13.3
2019-Nov-11 11:43 306 11 gusting 13 13.3
2019-Nov-11 11:33 342 4 gusting 16 12.8
2019-Nov-11 11:23 329 12 gusting 16 12.8
2019-Nov-11 11:13 305 8 gusting 12 12.2
2019-Nov-11 11:03 341 3 gusting 7 11.7
2019-Nov-11 10:53 355 3 gusting 17 11.7
2019-Nov-11 10:43 009 13 gusting 16 11.7
2019-Nov-11 10:33 334 6 gusting 19 11.7
2019-Nov-11 10:23 348 9 gusting 21 11.7
2019-Nov-11 10:13 320 14 gusting 14 11.7
2019-Nov-11 10:03 320 9 gusting 20 11.7
2019-Nov-11 09:53 323 13 gusting 19 12.2
2019-Nov-11 09:43 360 15 gusting 20 12.8
2019-Nov-11 09:33 330 8 gusting 19 12.8
2019-Nov-11 09:23 308 8 gusting 17 13.3
2019-Nov-11 09:13 346 15 gusting 15 13.3
2019-Nov-11 09:03 355 9 gusting 19 13.3
2019-Nov-11 08:53 328 6 gusting 14 13.9
2019-Nov-11 08:43 346 8 gusting 14 13.9
2019-Nov-11 08:33 347 15 gusting 18 13.9
2019-Nov-11 08:23 355 6 gusting 19 13.3
2019-Nov-11 08:13 331 14 gusting 19 13.3
2019-Nov-11 08:03 333 13 gusting 19 13.3
2019-Nov-11 07:53 333 13 gusting 17 13.3
2019-Nov-11 07:43 325 16 gusting 19 13.3
2019-Nov-11 07:33 027 12 gusting 19 13.3
2019-Nov-11 07:23 324 7 gusting 19 12.8
2019-Nov-11 07:13 349 13 gusting 17 12.8
2019-Nov-11 07:03 342 17 gusting 21 12.2
2019-Nov-11 06:53 348 14 gusting 22 12.2
2019-Nov-11 06:43 282 13 gusting 19 12.8
2019-Nov-11 06:33 318 17 gusting 19 13.3
2019-Nov-11 06:23 355 16 gusting 21 13.3
2019-Nov-11 06:13 019 11 gusting 17 13.9
2019-Nov-11 06:03 350 16 gusting 20 13.9
2019-Nov-11 05:53 344 15 gusting 29 13.9
2019-Nov-11 05:43 035 11 gusting 20 13.9
2019-Nov-11 05:33 315 8 gusting 20 13.9
2019-Nov-11 05:23 005 10 gusting 18 13.9
2019-Nov-11 05:13 043 13 gusting 20 13.9
2019-Nov-11 05:03 333 13 gusting 24 13.9
2019-Nov-11 04:53 013 12 gusting 13 13.9
2019-Nov-11 04:43 355 14 gusting 23 13.9
2019-Nov-11 04:33 035 12 gusting 19 13.9
2019-Nov-11 04:23 350 22 gusting 28 13.9
2019-Nov-11 04:13 360 12 gusting 18 13.9
2019-Nov-11 04:03 317 7 gusting 15 13.9
2019-Nov-11 03:53 334 11 gusting 16 13.9
2019-Nov-11 03:43 355 8 gusting 14 13.9
2019-Nov-11 03:33 005 13 gusting 15 13.3
2019-Nov-11 03:23 015 7 gusting 19 13.3
2019-Nov-11 03:13 019 11 gusting 18 13.3
2019-Nov-11 03:03 338 10 gusting 20 13.3
2019-Nov-11 02:53 355 12 gusting 14 13.3
2019-Nov-11 02:43 350 19 gusting 19 13.3
2019-Nov-11 02:33 342 14 gusting 19 12.8
2019-Nov-11 02:23 047 10 gusting 14 13.3
2019-Nov-11 02:13 360 9 gusting 15 13.3
2019-Nov-11 02:03 350 11 gusting 14 13.3
2019-Nov-11 01:53 332 13 gusting 19 13.3
2019-Nov-11 01:43 338 9 gusting 14 13.3
2019-Nov-11 01:33 013 18 gusting 21 13.3
2019-Nov-11 01:23 348 10 gusting 22 13.3
2019-Nov-11 01:13 355 11 gusting 15 13.3
2019-Nov-11 01:03 355 14 gusting 14 13.3
2019-Nov-11 00:53 360 14 gusting 21 13.9
2019-Nov-11 00:43 350 11 gusting 13 13.3
2019-Nov-11 00:33 360 7 gusting 14 13.9
2019-Nov-11 00:23 348 17 gusting 19 13.9
2019-Nov-11 00:13 011 9 gusting 13 13.9
2019-Nov-11 00:03 005 12 gusting 16 13.3
2019-Nov-10 23:53 342 19 gusting 19 13.9
2019-Nov-10 23:43 329 8 gusting 15 13.9
2019-Nov-10 23:33 338 9 gusting 15 13.9
2019-Nov-10 23:23 005 18 gusting 19 13.9
2019-Nov-10 23:13 349 12 gusting 19 13.9
2019-Nov-10 23:03 310 10 gusting 19 13.9
2019-Nov-10 22:53 355 14 gusting 16 13.9
2019-Nov-10 22:43 005 19 gusting 19 13.9
2019-Nov-10 22:33 331 11 gusting 19 13.9
2019-Nov-10 22:23 323 13 gusting 19 13.9
2019-Nov-10 22:13 331 13 gusting 14 13.3
2019-Nov-10 22:03 320 8 gusting 17 13.3
2019-Nov-10 21:53 338 8 gusting 14 13.9
2019-Nov-10 21:43 344 15 gusting 17 13.9
2019-Nov-10 21:33 348 16 gusting 19 13.9
2019-Nov-10 21:23 360 13 gusting 15 13.9
2019-Nov-10 21:13 333 8 gusting 18 13.9
2019-Nov-10 21:03 017 13 gusting 19 13.9
2019-Nov-10 20:53 344 15 gusting 18 13.9
2019-Nov-10 20:43 026 10 gusting 15 13.3
2019-Nov-10 20:33 339 15 gusting 22 13.9
2019-Nov-10 20:23 348 15 gusting 19 13.3
2019-Nov-10 20:13 348 20 gusting 24 13.3
2019-Nov-10 20:03 340 15 gusting 19 13.3
2019-Nov-10 19:53 321 9 gusting 19 13.3
2019-Nov-10 19:43 355 19 gusting 19 13.3
2019-Nov-10 19:33 340 15 gusting 16 13.9
2019-Nov-10 19:23 325 14 gusting 15 13.9
2019-Nov-10 19:13 350 13 gusting 18 13.9
2019-Nov-10 19:03 014 14 gusting 18 13.3
2019-Nov-10 18:53 346 13 gusting 19 13.3
2019-Nov-10 18:43 005 13 gusting 20 13.3
2019-Nov-10 18:33 005 14 gusting 22 13.3
2019-Nov-10 18:23 330 13 gusting 18 13.3
2019-Nov-10 18:13 304 18 gusting 18 13.3
2019-Nov-10 18:03 017 14 gusting 22 13.3
2019-Nov-10 17:53 012 8 gusting 13 13.3
2019-Nov-10 17:43 355 6 gusting 16 13.3
2019-Nov-10 17:33 355 11 gusting 16 13.3
2019-Nov-10 17:23 321 4 gusting 15 13.3
2019-Nov-10 17:13 360 12 gusting 18 13.9
2019-Nov-10 17:03 348 10 gusting 17 13.3
2019-Nov-10 16:53 024 9 gusting 14 13.9
2019-Nov-10 16:43 360 12 gusting 12 13.9
2019-Nov-10 16:33 360 13 gusting 14 13.9
2019-Nov-10 16:23 331 8 gusting 16 13.9
2019-Nov-10 16:13 341 19 gusting 19 13.9
2019-Nov-10 16:03 342 7 gusting 14 13.9
2019-Nov-10 15:53 346 8 gusting 8 13.9
2019-Nov-10 15:43 334 11 gusting 11 13.9
2019-Nov-10 15:33 341 8 gusting 8 13.9
2019-Nov-10 15:23 336 11 gusting 11 13.3
2019-Nov-10 15:13 335 14 gusting 14 13.3
2019-Nov-10 15:03 350 9 gusting 15 13.3
2019-Nov-10 14:53 348 8 gusting 8 13.3
2019-Nov-10 14:43 315 10 gusting 10 13.3
2019-Nov-10 14:33 355 9 gusting 15 13.3
2019-Nov-10 14:23 360 14 gusting 17 13.3
2019-Nov-10 14:13 341 14 gusting 19 13.3
2019-Nov-10 14:03 360 18 gusting 18 13.3
2019-Nov-10 13:53 304 10 gusting 15 13.3
2019-Nov-10 13:43 342 12 gusting 18 13.3
2019-Nov-10 13:33 028 6 gusting 15 13.3
2019-Nov-10 13:23 343 6 gusting 12 13.3
2019-Nov-10 13:13 005 9 gusting 13 13.3
2019-Nov-10 13:03 009 5 gusting 13 13.9
2019-Nov-10 12:53 009 6 gusting 12 13.9
2019-Nov-10 12:43 344 10 gusting 10 13.9
2019-Nov-10 12:33 360 10 gusting 10 13.9
2019-Nov-10 12:23 344 8 gusting 9 13.9
2019-Nov-10 12:13 350 8 gusting 8 13.3
2019-Nov-10 12:03 344 3 gusting 6 12.8
2019-Nov-10 11:53 267 0 gusting 2 12.8
2019-Nov-10 11:43 301 13.3
2019-Nov-10 11:33 255 12.8
2019-Nov-10 11:23 238 12.8
2019-Nov-10 11:13 233 12.8
2019-Nov-10 11:03 286 2 gusting 3 12.8
2019-Nov-10 10:53 254 2 gusting 2 12.8
2019-Nov-10 10:43 245 13.3
2019-Nov-10 10:33 246 13.3
2019-Nov-10 10:23 355 1 gusting 2 12.8
2019-Nov-10 10:13 255 0 gusting 2 12.8
2019-Nov-10 10:03 285 5 gusting 5 12.8
2019-Nov-10 09:53 259 5 gusting 8 12.8
2019-Nov-10 09:43 279 6 gusting 6 12.8
2019-Nov-10 09:33 291 5 gusting 8 12.8
2019-Nov-10 09:23 262 2 gusting 4 12.8
2019-Nov-10 09:13 288 6 gusting 6 12.8
2019-Nov-10 09:03 360 12 gusting 12 12.2
2019-Nov-10 08:53 312 2 gusting 2 12.2
2019-Nov-10 08:43 341 0 gusting 0 12.2
2019-Nov-10 08:33 349 1 gusting 1 12.2
2019-Nov-10 08:23 291 2 gusting 2 12.2
2019-Nov-10 08:13 276 1 gusting 2 12.2
2019-Nov-10 08:03 271 12.2
2019-Nov-10 07:53 355 2 gusting 2 12.2
2019-Nov-10 07:43 246 11.7
2019-Nov-10 07:33 209 1 gusting 1 11.1
2019-Nov-10 07:23 240 11.1
2019-Nov-10 07:13 355 10.6
2019-Nov-10 07:03 005 10.6
2019-Nov-10 06:53 325 11.1
2019-Nov-10 06:43 308 0 gusting 2 10.6
2019-Nov-10 06:33 300 10.6
2019-Nov-10 06:23 287 2 gusting 2 10.6
2019-Nov-10 06:13 276 2 gusting 2 11.1
2019-Nov-10 06:03 303 2 gusting 3 10.0
2019-Nov-10 05:53 295 2 gusting 2 10.6
2019-Nov-10 05:43 290 2 gusting 3 10.6
2019-Nov-10 05:33 323 2 gusting 4 10.6
2019-Nov-10 05:23 331 2 gusting 2 10.6
2019-Nov-10 05:13 339 2 gusting 2 10.6
2019-Nov-10 05:03 329 10.6
2019-Nov-10 04:53 302 10.6
2019-Nov-10 04:43 269 2 gusting 4 11.1
2019-Nov-10 04:33 332 11.1
2019-Nov-10 04:23 288 3 gusting 7 11.1
2019-Nov-10 04:13 277 4 gusting 6 11.1
2019-Nov-10 04:03 313 3 gusting 5 10.6
2019-Nov-10 03:53 284 4 gusting 4 10.6
2019-Nov-10 03:43 302 2 gusting 5 11.1
2019-Nov-10 03:33 286 6 gusting 8 10.6
2019-Nov-10 03:23 300 6 gusting 6 10.6
2019-Nov-10 03:13 278 4 gusting 5 10.6
2019-Nov-10 03:03 285 4 gusting 5 10.6
2019-Nov-10 02:53 299 5 gusting 6 10.6
2019-Nov-10 02:43 304 2 gusting 7 10.6
2019-Nov-10 02:33 298 3 gusting 5 10.0
2019-Nov-10 02:23 283 0 gusting 2 10.0
2019-Nov-10 02:13 294 2 gusting 5 10.0
2019-Nov-10 02:03 293 5 gusting 5 10.0
2019-Nov-10 01:53 277 2 gusting 4 10.0
2019-Nov-10 01:43 287 2 gusting 2 10.0
2019-Nov-10 01:33 290 3 gusting 5 10.0
2019-Nov-10 01:23 274 2 gusting 4 10.0
2019-Nov-10 01:13 291 2 gusting 2 10.0
2019-Nov-10 01:03 267 2 gusting 2 10.0
2019-Nov-10 00:53 280 1 gusting 2 10.6
2019-Nov-10 00:43 340 2 gusting 2 10.6
2019-Nov-10 00:33 298 5 gusting 5 10.0
2019-Nov-10 00:23 315 2 gusting 2 10.0
2019-Nov-10 00:13 321 1 gusting 2 10.0
2019-Nov-10 00:03 319 2 gusting 3 10.0
2019-Nov-09 23:53 322 3 gusting 3 10.0
2019-Nov-09 23:43 313 2 gusting 2 10.6
2019-Nov-09 23:33 303 3 gusting 6 10.6
2019-Nov-09 23:23 278 4 gusting 5 10.6
2019-Nov-09 23:13 292 3 gusting 3 10.6
2019-Nov-09 23:03 249 5 gusting 8 10.6
2019-Nov-09 22:53 274 6 gusting 7 11.1
2019-Nov-09 22:43 288 8 gusting 9 11.1
2019-Nov-09 22:33 273 6 gusting 6 11.1
2019-Nov-09 22:23 271 6 gusting 6 11.1
2019-Nov-09 22:13 282 1 gusting 4 11.1
2019-Nov-09 22:03 273 5 gusting 8 11.1